| time (UTC) | temp C | wind direction | speed KPH | gust KPH | rain 1hr cm | rain 24hr cm | rain mn cm | humidity % | barometer mb |
| 20260510021333 | 13 | 53 | 3.2 | 6.4 | 0.00 | 0.00 | 0.00 | 64 | 1011.7 |
| 20260510020433 | 13 | 78 | 3.2 | 6.4 | 0.00 | 0.00 | 0.00 | 64 | 1011.7 |
| 20260510015533 | 13 | 354 | 4.8 | 6.4 | 0.00 | 0.00 | 0.00 | 64 | 1011.7 |
| 20260510014633 | 13 | 327 | 4.8 | 9.7 | 0.00 | 0.00 | 0.00 | 63 | 1011.7 |
| 20260510013733 | 13 | 62 | 3.2 | 9.7 | 0.00 | 0.00 | 0.00 | 63 | 1011.6 |
| 20260510011933 | 13 | 36 | 3.2 | 6.4 | 0.00 | 0.00 | 0.00 | 63 | 1011.6 |
| 20260510005233 | 13 | 349 | 6.4 | 8.0 | 0.00 | 0.00 | 0.00 | 63 | 1011.8 |
| 20260510004333 | 14 | 3 | 1.6 | 4.8 | 0.00 | 0.00 | 0.00 | 63 | 1011.9 |
| 20260510002533 | 14 | 20 | 4.8 | 6.4 | 0.00 | 0.00 | 0.00 | 63 | 1012.0 |
| 20260510001633 | 14 | 71 | 3.2 | 6.4 | 0.00 | 0.00 | 0.00 | 63 | 1012.2 |
| 20260510000733 | 14 | 88 | 3.2 | 6.4 | 0.00 | 0.00 | 0.00 | 64 | 1012.2 |
| 20260509234933 | 14 | 329 | 1.6 | 3.2 | 0.00 | 0.00 | 0.00 | 64 | 1012.6 |
| 20260509234033 | 13 | 328 | 3.2 | 4.8 | 0.00 | 0.00 | 0.00 | 64 | 1012.5 |
| 20260509233133 | 13 | 323 | 1.6 | 3.2 | 0.00 | 0.00 | 0.00 | 64 | 1012.6 |
| 20260509232233 | 14 | 330 | 0.0 | 3.2 | 0.00 | 0.00 | 0.00 | 63 | 1012.6 |
| 20260509231333 | 14 | 357 | 1.6 | 6.4 | 0.00 | 0.00 | 0.00 | 63 | 1012.6 |
| 20260509224633 | 14 | 314 | 3.2 | 4.8 | 0.00 | 0.00 | 0.00 | 63 | 1012.6 |
| 20260509223733 | 14 | 327 | 3.2 | 4.8 | 0.00 | 0.00 | 0.00 | 62 | 1012.6 |
| 20260509222833 | 14 | 332 | 0.0 | 3.2 | 0.00 | 0.00 | 0.00 | 62 | 1012.6 |
| 20260509220133 | 15 | 352 | 0.0 | 3.2 | 0.00 | 0.00 | 0.00 | 61 | 1012.4 |
| 20260509215233 | 15 | 335 | 1.6 | 6.4 | 0.00 | 0.00 | 0.00 | 61 | 1012.4 |
| 20260509214333 | 15 | 357 | 1.6 | 6.4 | 0.00 | 0.00 | 0.00 | 61 | 1012.5 |
| 20260509213433 | 15 | 46 | 1.6 | 8.0 | 0.00 | 0.00 | 0.00 | 61 | 1012.5 |
| 20260509212533 | 16 | 12 | 3.2 | 6.4 | 0.00 | 0.00 | 0.00 | 61 | 1012.5 |
| 20260509211633 | 16 | 355 | 4.8 | 9.7 | 0.00 | 0.00 | 0.00 | 61 | 1012.6 |
| 20260509210733 | 16 | 330 | 1.6 | 6.4 | 0.00 | 0.00 | 0.00 | 61 | 1012.8 |
| 20260509205833 | 16 | 314 | 3.2 | 6.4 | 0.00 | 0.00 | 0.00 | 62 | 1012.8 |
| 20260509204933 | 16 | 25 | 3.2 | 9.7 | 0.00 | 0.00 | 0.00 | 62 | 1012.9 |
| 20260509204033 | 16 | 70 | 4.8 | 9.7 | 0.00 | 0.00 | 0.00 | 63 | 1012.8 |
| 20260509203133 | 16 | 29 | 3.2 | 6.4 | 0.00 | 0.00 | 0.00 | 63 | 1012.9 |
| 20260509202233 | 16 | 41 | 3.2 | 9.7 | 0.00 | 0.00 | 0.00 | 63 | 1013.0 |
| 20260509201333 | 16 | 84 | 3.2 | 9.7 | 0.00 | 0.00 | 0.00 | 62 | 1012.7 |
| 20260509200433 | 17 | 85 | 6.4 | 9.7 | 0.00 | 0.00 | 0.00 | 63 | 1012.5 |
| 20260509195533 | 17 | 91 | 3.2 | 9.7 | 0.00 | 0.00 | 0.00 | 63 | 1012.5 |
| 20260509193733 | 17 | 90 | 11.3 | 12.9 | 0.00 | 0.00 | 0.00 | 60 | 1012.2 |
| 20260509191933 | 17 | 46 | 4.8 | 8.0 | 0.00 | 0.00 | 0.00 | 59 | 1011.8 |
| 20260509191033 | 17 | 88 | 4.8 | 8.0 | 0.00 | 0.00 | 0.00 | 59 | 1011.8 |
| 20260509185233 | 18 | 83 | 3.2 | 9.7 | 0.00 | 0.00 | 0.00 | 58 | 1011.8 |
| 20260509184333 | 18 | 96 | 6.4 | 12.9 | 0.00 | 0.00 | 0.00 | 57 | 1011.5 |
| 20260509182533 | 20 | 36 | 6.4 | 14.5 | 0.00 | 0.00 | 0.00 | 55 | 1011.3 |
| 20260509180733 | 21 | 24 | 8.0 | 16.1 | 0.00 | 0.00 | 0.00 | 53 | 1011.3 |
| 20260509175833 | 22 | 52 | 6.4 | 12.9 | 0.00 | 0.00 | 0.00 | 53 | 1011.3 |
| 20260509174933 | 22 | 123 | 4.8 | 12.9 | 0.00 | 0.00 | 0.00 | 52 | 1011.3 |
| 20260509174033 | 22 | 31 | 3.2 | 12.9 | 0.00 | 0.00 | 0.00 | 50 | 1011.3 |
| 20260509171333 | 21 | 83 | 8.0 | 12.9 | 0.00 | 0.00 | 0.00 | 52 | 1011.1 |
| 20260509170433 | 22 | 23 | 3.2 | 19.3 | 0.00 | 0.00 | 0.00 | 51 | 1011.2 |
| 20260509165533 | 23 | 83 | 6.4 | 11.3 | 0.00 | 0.00 | 0.00 | 49 | 1011.0 |
| 20260509164633 | 23 | 31 | 3.2 | 14.5 | 0.00 | 0.00 | 0.00 | 47 | 1011.1 |
| 20260509163733 | 24 | 90 | 4.8 | 19.3 | 0.00 | 0.00 | 0.00 | 48 | 1010.9 |
| 20260509162833 | 23 | 338 | 8.0 | 12.9 | 0.00 | 0.00 | 0.00 | 50 | 1011.0 |
| 20260509161933 | 22 | 71 | 3.2 | 17.7 | 0.00 | 0.00 | 0.00 | 47 | 1011.0 |
| 20260509161033 | 24 | 333 | 6.4 | 16.1 | 0.00 | 0.00 | 0.00 | 44 | 1011.1 |
| 20260509160133 | 25 | 346 | 4.8 | 8.0 | 0.00 | 0.00 | 0.00 | 45 | 1011.1 |
| 20260509155233 | 25 | 12 | 6.4 | 9.7 | 0.00 | 0.00 | 0.00 | 44 | 1011.3 |
| 20260509154335 | 25 | 79 | 3.2 | 12.9 | 0.00 | 0.00 | 0.00 | 43 | 1011.2 |
| 20260509153433 | 25 | 47 | 4.8 | 9.7 | 0.00 | 0.00 | 0.00 | 44 | 1011.2 |
| 20260509152533 | 25 | 2 | 6.4 | 11.3 | 0.00 | 0.00 | 0.00 | 43 | 1011.4 |
| 20260509151633 | 26 | 358 | 6.4 | 12.9 | 0.00 | 0.00 | 0.00 | 43 | 1011.6 |
| 20260509150733 | 25 | 83 | 8.0 | 12.9 | 0.00 | 0.00 | 0.00 | 44 | 1011.6 |
| 20260509145833 | 25 | 91 | 4.8 | 17.7 | 0.00 | 0.00 | 0.00 | 44 | 1011.7 |
| 20260509144933 | 25 | 86 | 11.3 | 17.7 | 0.00 | 0.00 | 0.00 | 42 | 1011.7 |
| 20260509144033 | 26 | 30 | 4.8 | 12.9 | 0.00 | 0.00 | 0.00 | 44 | 1011.7 |
| 20260509143133 | 26 | 85 | 9.7 | 17.7 | 0.00 | 0.00 | 0.00 | 43 | 1011.7 |
| 20260509142233 | 25 | 85 | 4.8 | 12.9 | 0.00 | 0.00 | 0.00 | 45 | 1011.8 |
| 20260509141333 | 25 | 79 | 8.0 | 16.1 | 0.00 | 0.00 | 0.00 | 46 | 1011.8 |
| 20260509140433 | 25 | 314 | 4.8 | 6.4 | 0.00 | 0.00 | 0.00 | 46 | 1012.1 |
| 20260509135533 | 25 | 88 | 3.2 | 12.9 | 0.00 | 0.00 | 0.00 | 45 | 1012.2 |
| 20260509134633 | 26 | 90 | 9.7 | 17.7 | 0.00 | 0.00 | 0.00 | 46 | 1012.2 |
| 20260509133733 | 26 | 43 | 4.8 | 16.1 | 0.00 | 0.00 | 0.00 | 48 | 1012.3 |
| 20260509131033 | 25 | 9 | 3.2 | 12.9 | 0.00 | 0.00 | 0.00 | 50 | 1012.4 |
| 20260509130133 | 23 | 100 | 8.0 | 19.3 | 0.00 | 0.00 | 0.00 | 50 | 1012.6 |
| 20260509125233 | 23 | 75 | 8.0 | 17.7 | 0.00 | 0.00 | 0.00 | 50 | 1012.7 |
| 20260509124333 | 23 | 74 | 6.4 | 17.7 | 0.00 | 0.00 | 0.00 | 50 | 1012.8 |
| 20260509123433 | 23 | 65 | 12.9 | 17.7 | 0.00 | 0.00 | 0.00 | 50 | 1012.8 |
| 20260509122533 | 24 | 340 | 6.4 | 12.9 | 0.00 | 0.00 | 0.00 | 50 | 1013.0 |
| 20260509121633 | 24 | 338 | 6.4 | 17.7 | 0.00 | 0.00 | 0.00 | 50 | 1013.0 |
| 20260509120733 | 24 | 90 | 3.2 | 17.7 | 0.00 | 0.00 | 0.00 | 51 | 1013.1 |
| 20260509115833 | 23 | 80 | 11.3 | 12.9 | 0.00 | 0.00 | 0.00 | 49 | 1013.1 |
| 20260509114933 | 23 | 65 | 3.2 | 17.7 | 0.00 | 0.00 | 0.00 | 51 | 1013.2 |
| 20260509114033 | 23 | 90 | 6.4 | 16.1 | 0.00 | 0.00 | 0.00 | 51 | 1013.2 |
| 20260509113133 | 22 | 91 | 6.4 | 14.5 | 0.00 | 0.00 | 0.00 | 51 | 1013.2 |
| 20260509112233 | 23 | 73 | 6.4 | 11.3 | 0.00 | 0.00 | 0.00 | 51 | 1013.2 |
| 20260509111333 | 22 | 93 | 6.4 | 16.1 | 0.00 | 0.00 | 0.00 | 52 | 1013.2 |
| 20260509105533 | 22 | 90 | 6.4 | 14.5 | 0.00 | 0.00 | 0.00 | 51 | 1013.5 |
| 20260509104633 | 22 | 26 | 6.4 | 12.9 | 0.00 | 0.00 | 0.00 | 51 | 1013.5 |
| 20260509103733 | 22 | 48 | 9.7 | 16.1 | 0.00 | 0.00 | 0.00 | 51 | 1013.6 |
| 20260509102833 | 22 | 56 | 12.9 | 16.1 | 0.00 | 0.00 | 0.00 | 52 | 1013.6 |
| 20260509101933 | 22 | 84 | 4.8 | 16.1 | 0.00 | 0.00 | 0.00 | 52 | 1013.8 |
| 20260509101033 | 22 | 11 | 8.0 | 16.1 | 0.00 | 0.00 | 0.00 | 53 | 1013.7 |
| 20260509100133 | 21 | 343 | 3.2 | 12.9 | 0.00 | 0.00 | 0.00 | 57 | 1013.9 |
| 20260509095234 | 21 | 7 | 3.2 | 12.9 | 0.00 | 0.00 | 0.00 | 59 | 1014.2 |
| 20260509094333 | 21 | 83 | 9.7 | 14.5 | 0.00 | 0.00 | 0.00 | 57 | 1014.1 |
| 20260509093433 | 21 | 45 | 3.2 | 17.7 | 0.00 | 0.00 | 0.00 | 59 | 1014.2 |
| 20260509092533 | 21 | 84 | 9.7 | 16.1 | 0.00 | 0.00 | 0.00 | 56 | 1014.2 |
| 20260509091633 | 20 | 64 | 6.4 | 12.9 | 0.00 | 0.00 | 0.00 | 58 | 1014.1 |
| 20260509085833 | 20 | 78 | 11.3 | 17.7 | 0.00 | 0.00 | 0.00 | 59 | 1014.0 |
| 20260509084933 | 20 | 82 | 6.4 | 16.1 | 0.00 | 0.00 | 0.00 | 60 | 1013.9 |
| 20260509084033 | 19 | 91 | 3.2 | 17.7 | 0.00 | 0.00 | 0.00 | 61 | 1013.9 |
| 20260509083133 | 18 | 86 | 6.4 | 17.7 | 0.00 | 0.00 | 0.00 | 60 | 1013.9 |
| 20260509082233 | 18 | 87 | 8.0 | 17.7 | 0.00 | 0.00 | 0.00 | 61 | 1013.8 |
| 20260509081333 | 17 | 314 | 4.8 | 12.9 | 0.00 | 0.00 | 0.00 | 61 | 1013.8 |
| 20260509080433 | 17 | 287 | 11.3 | 14.5 | 0.00 | 0.00 | 0.00 | 61 | 1014.0 |
| 20260509075533 | 17 | 93 | 9.7 | 16.1 | 0.00 | 0.00 | 0.00 | 60 | 1014.0 |
| 20260509074633 | 18 | 88 | 8.0 | 16.1 | 0.00 | 0.00 | 0.00 | 60 | 1014.1 |
| 20260509072833 | 17 | 105 | 6.4 | 17.7 | 0.00 | 0.00 | 0.00 | 62 | 1014.3 |
| 20260509071933 | 17 | 86 | 6.4 | 12.9 | 0.00 | 0.00 | 0.00 | 62 | 1014.4 |
| 20260509071033 | 17 | 98 | 6.4 | 11.3 | 0.00 | 0.00 | 0.00 | 69 | 1014.4 |
| 20260509070133 | 16 | 90 | 6.4 | 12.9 | 0.00 | 0.00 | 0.00 | 69 | 1014.4 |
| 20260509065234 | 15 | 73 | 8.0 | 12.9 | 0.00 | 0.00 | 0.00 | 70 | 1014.5 |
| 20260509064334 | 15 | 88 | 6.4 | 12.9 | 0.00 | 0.00 | 0.00 | 70 | 1014.5 |
| 20260509063433 | 15 | 91 | 6.4 | 12.9 | 0.00 | 0.00 | 0.00 | 70 | 1014.5 |
| 20260509062533 | 15 | 87 | 8.0 | 12.9 | 0.00 | 0.00 | 0.00 | 70 | 1014.5 |
| 20260509061633 | 14 | 89 | 9.7 | 12.9 | 0.00 | 0.00 | 0.00 | 71 | 1014.4 |
| 20260509060733 | 13 | 90 | 6.4 | 11.3 | 0.00 | 0.00 | 0.00 | 72 | 1014.6 |
| 20260509054933 | 12 | 90 | 4.8 | 12.9 | 0.00 | 0.00 | 0.00 | 73 | 1014.5 |
| 20260509054033 | 12 | 96 | 6.4 | 9.7 | 0.00 | 0.00 | 0.00 | 74 | 1014.4 |
| 20260509053134 | 11 | 94 | 6.4 | 9.7 | 0.00 | 0.00 | 0.00 | 78 | 1014.5 |
| 20260509052233 | 11 | 90 | 6.4 | 8.0 | 0.00 | 0.00 | 0.00 | 78 | 1014.5 |
| 20260509051333 | 11 | 83 | 6.4 | 8.0 | 0.00 | 0.00 | 0.00 | 78 | 1014.5 |
| 20260509050433 | 11 | 54 | 3.2 | 4.8 | 0.00 | 0.00 | 0.00 | 77 | 1014.4 |
| 20260509045533 | 10 | 48 | 3.2 | 3.2 | 0.00 | 0.00 | 0.00 | 76 | 1014.4 |
| 20260509044633 | 10 | 334 | 0.0 | 3.2 | 0.00 | 0.00 | 0.00 | 76 | 1014.5 |
| 20260509043733 | 10 | 336 | 1.6 | 3.2 | 0.00 | 0.00 | 0.00 | 76 | 1014.4 |
| 20260509041933 | 10 | 18 | 1.6 | 4.8 | 0.00 | 0.00 | 0.00 | 75 | 1014.1 |
| 20260509040133 | 11 | 83 | 4.8 | 6.4 | 0.00 | 0.00 | 0.00 | 75 | 1014.1 |
| 20260509035233 | 11 | 89 | 3.2 | 8.0 | 0.00 | 0.00 | 0.00 | 76 | 1014.0 |
| 20260509034333 | 11 | 90 | 4.8 | 9.7 | 0.00 | 0.00 | 0.00 | 76 | 1014.1 |
| 20260509033433 | 11 | 88 | 8.0 | 9.7 | 0.00 | 0.00 | 0.00 | 76 | 1014.0 |
| 20260509032533 | 11 | 90 | 6.4 | 8.0 | 0.00 | 0.00 | 0.00 | 76 | 1014.1 |
| 20260509031633 | 11 | 82 | 4.8 | 9.7 | 0.00 | 0.00 | 0.00 | 76 | 1014.1 |
| 20260509030733 | 11 | 85 | 4.8 | 8.0 | 0.00 | 0.00 | 0.00 | 75 | 1014.0 |
| 20260509025833 | 11 | 86 | 4.8 | 6.4 | 0.00 | 0.00 | 0.00 | 75 | 1014.1 |
| 20260509024933 | 11 | 67 | 4.8 | 6.4 | 0.00 | 0.00 | 0.00 | 74 | 1014.2 |
| 20260509024033 | 11 | 321 | 3.2 | 3.2 | 0.00 | 0.00 | 0.00 | 73 | 1014.2 |
| 20260509023133 | 11 | 318 | 1.6 | 3.2 | 0.00 | 0.00 | 0.00 | 73 | 1014.4 |